GW5135 Weather Reports


time (UTC)temp
C
wind
direction
speed
KPH
gust
KPH
rain 1hr
cm
rain 24hr
cm
rain mn
cm
humidity
%
barometer
mb
20260906133017 21 190 0.0 0.0 0.00 0.00 0.00 96 1017.6
20260906132512 21 241 0.0 0.0 0.00 0.00 0.00 97 1017.6
20260906132007 21 215 0.0 0.0 0.00 0.00 0.00 97 1017.5
20260906131502 21 266 0.0 0.0 0.00 0.00 0.00 97 1017.5
20260906130958 21 146 0.0 0.0 0.00 0.00 0.00 97 1017.5
20260906130457 21 98 0.0 0.0 0.00 0.00 0.00 99 1017.4
20260906125952 21 98 0.0 0.0 0.00 0.00 0.00 99 1017.4
20260906125450 21 98 0.0 0.0 0.00 0.00 0.00 99 1017.2
20260906124949 21 98 0.0 0.0 0.00 0.00 0.00 99 1017.3
20260906124444 21 98 0.0 0.0 0.00 0.00 0.00 99 1017.2
20260906123939 21 98 0.0 0.0 0.00 0.00 0.00 99 1017.2
20260906123439 21 98 0.0 0.0 0.00 0.00 0.00 99 1017.4
20260906122933 21 98 0.0 0.0 0.00 0.00 0.00 99 1017.3
20260906122428 21 98 0.0 0.0 0.00 0.00 0.00 99 1017.2
20260906121925 20 98 0.0 0.0 0.00 0.00 0.00 99 1017.0
20260906121421 20 99 0.0 0.0 0.00 0.00 0.00 99 1017.1
20260906120917 20 99 0.0 0.0 0.00 0.00 0.00 99 1017.0
20260906120412 20 99 0.0 0.0 0.00 0.00 0.00 99 1017.0
20260906115908 20 99 0.0 0.0 0.00 0.00 0.00 99 1016.9
20260906115404 20 99 0.0 0.0 0.00 0.00 0.00 99 1016.8
20260906114903 20 102 0.0 0.0 0.00 0.00 0.00 99 1016.9
20260906114358 20 102 0.0 0.0 0.00 0.00 0.00 99 1016.8
20260906113853 20 106 0.0 0.0 0.00 0.00 0.00 99 1016.6
20260906113351 20 106 0.0 0.0 0.00 0.00 0.00 99 1016.6
20260906112847 20 102 0.0 0.0 0.00 0.00 0.00 99 1016.5
20260906112343 20 102 0.0 0.0 0.00 0.00 0.00 99 1016.2
20260906111844 20 102 0.0 0.0 0.00 0.00 0.00 99 1016.3
20260906111343 20 102 0.0 0.0 0.00 0.00 0.00 99 1016.3
20260906110838 20 102 0.0 0.0 0.00 0.00 0.00 99 1016.0
20260906110334 20 102 0.0 0.0 0.00 0.00 0.00 99 1016.1
20260906105833 20 102 0.0 0.0 0.00 0.00 0.00 99 1015.8
20260906105329 20 106 0.0 0.0 0.00 0.00 0.00 99 1016.0
20260906104824 20 101 0.0 0.0 0.00 0.00 0.00 99 1015.8
20260906104323 20 101 0.0 0.0 0.00 0.00 0.00 99 1015.8
20260906103821 20 137 0.0 0.0 0.00 0.00 0.00 99 1016.1
20260906103320 20 122 0.0 1.6 0.00 0.00 0.00 99 1015.5
20260906102816 20 108 0.0 1.6 0.00 0.00 0.00 99 1015.6
20260906102315 20 143 0.0 0.0 0.00 0.00 0.00 99 1015.7
20260906101811 20 197 0.0 0.0 0.00 0.00 0.00 99 1015.5
20260906101306 20 198 0.0 0.0 0.00 0.00 0.00 99 1015.8
20260906100801 20 154 0.0 0.0 0.00 0.00 0.00 99 1015.6
20260906100300 20 149 0.0 0.0 0.00 0.00 0.00 99 1015.7
20260906095756 20 145 0.0 0.0 0.00 0.00 0.00 99 1015.6
20260906095251 20 145 0.0 0.0 0.00 0.00 0.00 99 1015.6
20260906094750 20 145 0.0 0.0 0.00 0.00 0.00 99 1015.4
20260906094245 20 144 0.0 1.6 0.00 0.00 0.00 99 1015.5
20260906093741 20 126 0.0 0.0 0.00 0.00 0.00 99 1015.6
20260906093237 20 126 0.0 0.0 0.00 0.00 0.00 99 1015.6
20260906092732 20 126 0.0 0.0 0.00 0.00 0.00 99 1015.6
20260906092232 20 126 0.0 0.0 0.00 0.00 0.00 99 1015.7
20260906091728 20 126 0.0 0.0 0.00 0.00 0.00 99 1015.8
20260906091224 20 127 0.0 0.0 0.00 0.00 0.00 99 1015.7
20260906090720 20 160 1.6 1.6 0.00 0.00 0.00 99 1015.5
20260906090219 20 151 0.0 1.6 0.00 0.00 0.00 99 1015.7
20260906085718 20 185 0.0 1.6 0.00 0.00 0.00 99 1015.7
20260906085217 20 230 0.0 1.6 0.00 0.00 0.00 99 1015.8
20260906084713 20 199 1.6 3.2 0.00 0.00 0.00 99 1015.8
20260906084212 20 212 0.0 0.0 0.00 0.00 0.00 99 1015.6
20260906083708 20 150 0.0 1.6 0.00 0.00 0.00 99 1015.3
20260906083203 20 62 0.0 0.0 0.00 0.00 0.00 99 1015.5
20260906082657 20 62 0.0 0.0 0.00 0.00 0.00 99 1015.5
20260906082153 20 65 0.0 1.6 0.00 0.00 0.00 99 1015.4
20260906081649 20 75 0.0 0.0 0.00 0.00 0.00 99 1015.5
20260906081144 20 74 0.0 0.0 0.00 0.00 0.00 99 1015.4
20260906080640 20 74 0.0 0.0 0.00 0.00 0.00 99 1015.4
20260906080136 20 74 0.0 0.0 0.00 0.00 0.00 99 1015.2
20260906075636 20 97 0.0 0.0 0.00 0.00 0.00 99 1015.2
20260906075130 20 94 0.0 0.0 0.00 0.00 0.00 99 1015.0
20260906074626 20 95 0.0 0.0 0.00 0.00 0.00 99 1015.3
20260906074125 20 101 0.0 0.0 0.00 0.00 0.00 99 1015.2
20260906073620 20 99 0.0 0.0 0.00 0.00 0.00 99 1015.2
20260906073115 20 99 0.0 0.0 0.00 0.00 0.00 99 1015.1
20260906072610 20 88 0.0 0.0 0.00 0.00 0.00 99 1015.2
20260906072106 20 78 0.0 0.0 0.00 0.00 0.00 99 1015.3
20260906071602 20 78 0.0 0.0 0.00 0.00 0.00 99 1015.1
20260906071056 20 79 0.0 0.0 0.00 0.00 0.00 99 1015.3
20260906070553 20 67 0.0 0.0 0.00 0.00 0.00 99 1015.4
20260906070049 20 66 0.0 0.0 0.00 0.00 0.00 99 1015.5
20260906065548 20 67 0.0 0.0 0.00 0.00 0.00 99 1015.5
20260906065044 20 67 0.0 0.0 0.00 0.00 0.00 99 1015.7
20260906064539 20 67 0.0 0.0 0.00 0.00 0.00 99 1015.7
20260906064034 20 67 0.0 0.0 0.00 0.00 0.00 99 1015.8
20260906063530 20 67 0.0 0.0 0.00 0.00 0.00 99 1016.0
20260906063026 20 70 0.0 0.0 0.00 0.00 0.00 99 1016.0
20260906062521 20 70 0.0 0.0 0.00 0.00 0.00 99 1015.7
20260906062015 20 72 0.0 1.6 0.00 0.00 0.00 99 1015.7
20260906061512 20 52 0.0 0.0 0.00 0.00 0.00 99 1015.6
20260906061011 20 57 0.0 0.0 0.00 0.00 0.00 99 1015.5
20260906060508 20 346 0.0 0.0 0.00 0.00 0.00 99 1015.6
20260906060004 20 346 0.0 0.0 0.00 0.00 0.00 99 1015.5
20260906055500 20 346 0.0 0.0 0.00 0.00 0.00 99 1015.5
20260906054955 20 3 0.0 0.0 0.00 0.00 0.00 99 1015.5
20260906054454 20 4 0.0 0.0 0.00 0.00 0.00 99 1015.5
20260906053950 20 5 0.0 0.0 0.00 0.00 0.00 99 1015.3
20260906053446 20 5 0.0 0.0 0.00 0.00 0.00 99 1015.3
20260906052942 20 5 0.0 0.0 0.00 0.00 0.00 99 1015.3
20260906052437 20 5 0.0 0.0 0.00 0.00 0.00 99 1015.4
20260906051934 20 5 0.0 0.0 0.00 0.00 0.00 99 1015.4
20260906051429 20 5 0.0 0.0 0.00 0.00 0.00 99 1015.4
20260906050925 20 5 0.0 0.0 0.00 0.00 0.00 99 1015.4
20260906050425 20 5 0.0 1.6 0.00 0.00 0.00 99 1015.4
20260906045924 20 54 0.0 0.0 0.00 0.00 0.00 99 1015.3
20260906045423 20 110 0.0 0.0 0.00 0.00 0.00 99 1015.5
20260906044920 20 118 0.0 0.0 0.00 0.00 0.00 99 1015.2
20260906044419 20 118 0.0 0.0 0.00 0.00 0.00 99 1015.6
20260906043915 21 118 0.0 0.0 0.00 0.00 0.00 99 1015.4
20260906043411 21 114 0.0 0.0 0.00 0.00 0.00 99 1015.4
20260906042906 21 114 0.0 0.0 0.00 0.00 0.00 99 1015.3
20260906042405 21 116 0.0 0.0 0.00 0.00 0.00 99 1015.6
20260906041900 21 117 0.0 0.0 0.00 0.00 0.00 99 1015.6
20260906041357 21 117 0.0 0.0 0.00 0.00 0.00 99 1015.6
20260906040856 21 122 0.0 0.0 0.00 0.00 0.00 99 1015.4
20260906040352 21 131 0.0 0.0 0.00 2.87 2.87 99 1015.6
20260906035847 21 126 0.0 0.0 0.00 2.87 2.87 99 1015.6
20260906035342 21 142 0.0 0.0 0.00 2.87 2.87 99 1015.8
20260906034837 21 142 0.0 0.0 0.00 2.87 2.87 99 1016.0
20260906034332 21 127 0.0 0.0 0.00 2.87 2.87 99 1016.0
20260906033828 21 123 0.0 0.0 0.00 2.87 2.87 99 1015.8
20260906033327 21 123 0.0 0.0 0.00 2.87 2.87 99 1016.0
20260906032824 21 123 0.0 0.0 0.00 2.87 2.87 99 1016.0
20260906032320 21 204 0.0 0.0 0.00 2.87 2.87 99 1016.0
20260906031814 21 204 0.0 1.6 0.00 2.87 2.87 99 1016.2
20260906031310 21 320 0.0 0.0 0.00 2.87 2.87 99 1016.2
20260906030810 21 327 0.0 0.0 0.00 2.87 2.87 99 1016.0
20260906030305 21 327 0.0 0.0 0.00 2.87 2.87 99 1016.2
20260906025805 21 327 0.0 0.0 0.00 2.87 2.87 99 1016.1
20260906025259 21 327 0.0 0.0 0.00 2.87 2.87 99 1016.2
20260906024758 21 327 0.0 0.0 0.00 2.87 2.87 99 1016.3
20260906024257 21 327 0.0 0.0 0.00 2.87 2.87 99 1016.0
20260906023753 21 327 0.0 0.0 0.00 2.87 2.87 99 1016.0
20260906023248 21 327 0.0 0.0 0.00 2.87 2.87 99 1016.2
20260906022744 21 327 0.0 0.0 0.00 2.87 2.87 99 1015.6
20260906022239 21 327 0.0 0.0 0.00 2.87 2.87 99 1015.7
20260906021735 21 327 0.0 0.0 0.00 2.87 2.87 99 1015.7
20260906021233 21 327 1.6 1.6 0.00 2.87 2.87 99 1015.8
20260906020728 21 315 0.0 0.0 0.13 2.87 2.87 99 1015.8
20260906020223 21 318 0.0 0.0 0.13 2.87 2.87 99 1015.8
20260906015723 21 316 0.0 0.0 0.00 2.84 2.84 99 1015.8
20260906015221 21 319 1.6 1.6 0.00 2.84 2.84 99 1016.1
20260906014716 22 353 0.0 0.0 0.00 2.84 2.84 99 1016.0
20260906014212 22 353 0.0 1.6 0.18 2.84 2.84 99 1016.0
20260906013708 22 326 0.0 1.6 1.37 2.84 2.84 98 1015.8
20260906013208 22 199 1.6 3.2 1.19 2.82 2.82 96 1016.0
20260906012703 22 124 3.2 3.2 0.00 2.62 2.62 97 1016.0
20260906012157 22 271 1.6 3.2 0.00 2.62 2.62 99 1016.0
20260906011653 21 334 0.0 0.0 0.00 2.62 2.62 99 1015.6
20260906011148 21 196 0.0 0.0 0.00 2.62 2.62 99 1015.1
20260906010644 21 196 0.0 0.0 0.00 2.62 2.62 99 1015.0
20260906010140 21 198 0.0 0.0 0.00 2.62 2.62 99 1015.1
20260906005639 21 198 0.0 0.0 0.00 2.62 2.62 99 1015.0
20260906005138 21 198 0.0 0.0 0.00 2.62 2.62 99 1015.0
20260906004637 21 198 0.0 0.0 0.00 2.62 2.62 99 1014.6
20260906004132 21 198 0.0 0.0 0.00 2.62 2.62 99 1014.6
20260906003627 21 202 0.0 0.0 0.00 2.62 2.62 99 1014.6
20260906003123 21 214 0.0 0.0 0.00 2.62 2.62 99 1014.5
20260906002618 22 214 0.0 0.0 0.00 2.62 2.62 99 1014.7
20260906002113 22 214 0.0 0.0 0.00 2.62 2.62 99 1014.7
20260906001608 22 214 0.0 0.0 0.00 2.62 2.62 98 1014.6
20260906001103 22 228 0.0 0.0 0.00 2.62 2.62 98 1014.7
20260906000559 22 228 0.0 0.0 0.00 2.62 2.62 98 1014.6
20260906000054 22 215 0.0 0.0 0.00 2.62 2.62 98 1014.4
20260905235553 22 211 0.0 0.0 0.00 2.62 2.62 97 1014.5
20260905235048 22 211 0.0 0.0 0.00 2.62 2.62 97 1014.6
20260905234543 22 211 0.0 0.0 0.00 2.62 2.62 97 1014.5
20260905234038 22 211 0.0 0.0 0.00 2.62 2.62 96 1014.6
20260905233533 23 213 0.0 0.0 0.00 2.62 2.62 95 1014.5
20260905233032 23 216 0.0 0.0 0.00 2.62 2.62 94 1014.4
20260905232528 23 216 0.0 0.0 0.00 2.62 2.62 94 1014.8
20260905232024 23 216 0.0 0.0 0.00 2.62 2.62 94 1014.6
20260905231518 23 229 0.0 0.0 0.00 2.62 2.62 92 1014.5
20260905231015 23 229 0.0 0.0 0.00 2.62 2.62 91 1014.7
20260905230514 24 229 0.0 1.6 0.00 2.62 2.62 91 1014.6
20260905230012 25 259 0.0 0.0 0.00 2.62 2.62 88 1014.6
20260905225508 25 258 1.6 1.6 0.00 2.62 2.62 86 1014.7
20260905225002 25 232 0.0 0.0 0.00 2.62 2.62 88 1014.4
20260905224457 25 261 0.0 1.6 0.00 2.62 2.62 84 1014.6
20260905223957 25 255 0.0 0.0 0.00 2.62 2.62 82 1014.8
20260905223455 25 233 0.0 0.0 0.00 2.62 2.62 84 1014.8
20260905222950 25 229 0.0 0.0 0.00 2.62 2.62 84 1014.7
20260905222449 25 246 0.0 1.6 0.00 2.62 2.62 83 1014.8
20260905221945 25 225 0.0 0.0 0.00 2.62 2.62 86 1014.6
20260905221441 25 226 0.0 0.0 0.00 2.62 2.62 85 1014.7
20260905220937 26 232 0.0 1.6 0.00 2.62 2.62 82 1014.7
20260905220433 25 257 0.0 1.6 0.00 2.62 2.62 83 1014.5
20260905215932 26 259 0.0 0.0 0.00 2.62 2.62 84 1014.7
20260905215427 26 259 0.0 1.6 0.00 2.62 2.62 82 1014.5
20260905214924 26 258 0.0 0.0 0.00 2.62 2.62 84 1014.4
20260905214420 26 200 1.6 1.6 0.00 2.62 2.62 82 1014.3
20260905213919 26 206 1.6 3.2 0.00 2.62 2.62 80 1014.3
20260905213416 27 252 0.0 1.6 0.00 2.62 2.62 78 1014.4
20260905212911 27 186 0.0 0.0 0.00 2.62 2.62 78 1014.2
20260905212406 27 257 0.0 1.6 0.00 2.62 2.62 76 1014.4
20260905211859 27 308 0.0 1.6 0.00 2.62 2.62 78 1014.2
20260905211355 27 275 1.6 3.2 0.00 2.62 2.62 78 1014.3
20260905210851 27 206 3.2 4.8 0.00 2.62 2.62 78 1014.1
20260905210350 27 227 0.0 3.2 0.00 2.62 2.62 72 1014.1
20260905205849 27 186 3.2 4.8 0.00 2.62 2.62 75 1014.0
20260905205344 27 269 1.6 1.6 0.00 2.62 2.62 72 1014.3
20260905204843 28 256 3.2 6.4 0.00 2.62 2.62 71 1014.2
20260905204340 28 248 1.6 1.6 0.00 2.62 2.62 75 1014.2
20260905203838 28 254 1.6 1.6 0.00 2.62 2.62 69 1014.2
20260905203335 27 253 1.6 1.6 0.00 2.62 2.62 71 1014.3
20260905202830 27 204 3.2 3.2 0.00 2.62 2.62 76 1014.4
20260905202325 27 258 0.0 0.0 0.00 2.62 2.62 68 1014.4
20260905201821 28 262 4.8 4.8 0.00 2.62 2.62 69 1014.2
20260905201316 28 253 3.2 3.2 0.00 2.62 2.62 73 1014.1
20260905200810 28 220 0.0 1.6 0.00 2.62 2.62 73 1014.3
20260905200307 28 261 4.8 4.8 0.00 2.62 2.62 70 1014.5
20260905195804 28 241 3.2 4.8 0.00 2.62 2.62 70 1014.5
20260905195300 28 232 0.0 3.2 0.00 2.62 2.62 70 1014.7
20260905194756 28 271 1.6 1.6 0.00 2.62 2.62 69 1014.7
20260905194254 28 260 3.2 3.2 0.00 2.62 2.62 68 1014.7
20260905193754 27 271 1.6 1.6 0.00 2.62 2.62 69 1015.0
20260905193249 28 264 3.2 6.4 0.00 2.62 2.62 67 1015.1
20260905192744 28 143 1.6 4.8 0.00 2.62 2.62 66 1015.1
20260905192241 28 158 1.6 6.4 0.00 2.62 2.62 66 1015.0
20260905191740 28 267 0.0 0.0 0.00 2.62 2.62 69 1015.1
20260905191238 29 274 1.6 3.2 0.00 2.62 2.62 66 1015.1
20260905190737 29 280 3.2 4.8 0.00 2.62 2.62 65 1015.4
20260905190236 29 187 1.6 3.2 0.00 2.62 2.62 65 1015.2
20260905185735 29 227 3.2 4.8 0.00 2.62 2.62 64 1015.4
20260905185230 29 193 1.6 3.2 0.00 2.62 2.62 64 1015.5
20260905184725 29 273 0.0 3.2 0.00 2.62 2.62 63 1015.6
20260905184224 28 198 0.0 3.2 0.00 2.62 2.62 67 1015.7
20260905183718 28 279 0.0 1.6 0.00 2.62 2.62 70 1015.7
20260905183213 28 114 1.6 3.2 0.00 2.62 2.62 65 1015.7
20260905182712 28 276 3.2 3.2 0.00 2.62 2.62 66 1015.5
20260905182212 28 268 1.6 3.2 0.00 2.62 2.62 70 1015.7
20260905181708 28 269 3.2 4.8 0.00 2.62 2.62 67 1015.8
20260905181206 28 266 3.2 4.8 0.00 2.62 2.62 67 1015.6
20260905180701 28 159 0.0 4.8 0.00 2.62 2.62 67 1015.4
20260905180157 28 195 3.2 3.2 0.00 2.62 2.62 68 1015.5
20260905175655 28 162 1.6 4.8 0.00 2.62 2.62 68 1015.7
20260905175151 27 243 1.6 3.2 0.00 2.62 2.62 74 1015.7
20260905174647 27 123 1.6 4.8 0.00 2.62 2.62 69 1015.8
20260905174142 28 207 1.6 3.2 0.00 2.62 2.62 69 1016.1
20260905173638 27 242 0.0 1.6 0.00 2.62 2.62 67 1016.2
20260905173133 28 143 4.8 6.4 0.00 2.62 2.62 72 1016.3
20260905172632 27 191 1.6 1.6 0.00 2.62 2.62 74 1016.6
20260905172127 28 337 3.2 3.2 0.00 2.62 2.62 71 1016.4
20260905171623 27 163 0.0 1.6 0.00 2.62 2.62 72 1016.7
20260905171119 27 254 1.6 4.8 0.00 2.62 2.62 76 1016.7
20260905170615 27 186 4.8 4.8 0.00 2.62 2.62 73 1016.7
20260905170111 27 149 0.0 3.2 0.00 2.62 2.62 77 1016.9
20260905165611 26 142 3.2 4.8 0.00 2.62 2.62 80 1016.8
20260905165107 25 239 1.6 3.2 0.00 2.62 2.62 85 1016.8
20260905164601 25 265 0.0 3.2 0.00 2.62 2.62 83 1017.0
20260905164055 26 203 3.2 4.8 0.00 2.62 2.62 81 1016.9
20260905163552 26 172 6.4 9.7 0.00 2.62 2.62 82 1017.1
20260905163048 25 191 4.8 9.7 0.00 2.62 2.62 86 1017.2
20260905162544 25 214 4.8 6.4 0.00 2.62 2.62 86 1017.1
20260905162043 25 190 1.6 3.2 0.00 2.62 2.62 87 1017.2
20260905161543 24 173 3.2 4.8 0.00 2.62 2.62 88 1017.3
20260905161041 23 289 1.6 1.6 0.00 2.62 2.62 92 1017.4
20260905160539 24 250 3.2 4.8 0.00 2.62 2.62 91 1017.4
20260905160034 25 193 1.6 1.6 0.00 2.62 2.62 88 1017.6
20260905155534 25 251 1.6 3.2 0.00 2.62 2.62 88 1017.3
20260905155032 26 260 1.6 4.8 0.00 2.62 2.62 87 1017.2
20260905154528 25 358 0.0 1.6 0.00 2.62 2.62 88 1017.1
20260905154023 25 254 3.2 6.4 0.00 2.62 2.62 89 1017.3
20260905153519 23 201 4.8 6.4 0.00 2.62 2.62 91 1017.2
20260905153019 24 112 1.6 4.8 0.00 2.62 2.62 93 1017.4
20260905152514 23 279 1.6 4.8 0.00 2.62 2.62 95 1017.1
20260905152009 23 161 1.6 4.8 0.00 2.62 2.62 98 1017.6
20260905151504 22 261 1.6 3.2 0.00 2.62 2.62 99 1017.2
20260905150959 22 261 0.0 1.6 0.00 2.62 2.62 99 1017.4
20260905150454 22 261 1.6 1.6 0.00 2.62 2.62 99 1017.1
20260905145950 22 274 3.2 3.2 0.00 2.62 2.62 99 1017.0
20260905145445 22 3 0.0 1.6 0.00 2.62 2.62 99 1017.1
20260905144944 21 337 4.8 6.4 0.00 2.62 2.62 99 1016.6
20260905144440 21 91 0.0 1.6 0.00 2.62 2.62 99 1016.2
20260905143939 21 311 3.2 4.8 0.00 2.62 2.62 99 1015.6
20260905143438 21 122 1.6 3.2 0.00 2.62 2.62 99 1015.4
20260905142932 21 219 0.0 1.6 0.00 2.62 2.62 99 1015.2
20260905142432 21 152 0.0 1.6 0.18 2.62 2.62 99 1015.3
20260905141927 21 151 0.0 1.6 0.18 2.62 2.62 99 1015.5
20260905141422 21 159 0.0 4.8 0.00 2.59 2.59 99 1015.8
20260905140919 21 158 0.0 1.6 0.00 2.59 2.59 99 1016.1
20260905140414 21 226 1.6 3.2 0.00 2.59 2.59 99 1016.5
20260905135912 21 112 1.6 1.6 0.00 2.59 2.59 99 1016.5
20260905135408 20 136 0.0 0.0 0.00 2.59 2.59 99 1016.7
20260905134903 20 127 0.0 1.6 0.00 2.59 2.59 99 1016.7
20260905134401 20 154 1.6 1.6 0.00 2.59 2.59 99 1017.0
20260905133856 20 139 0.0 1.6 0.00 2.59 2.59 99 1016.8
20260905133351 20 135 0.0 0.0 0.00 2.59 2.59 99 1017.3